QB50P1 (40025 NORAD) Tracking and Keplerian Element Data

This shows tracking and keplerian element data for the satellite.

Feedback or suggestion? Click here.




ElementValue
Catalog40025
NameQB50P1
Epoch Orbit45705
Epoch Day324.77544226
Epoch Year2022
RAAN263.5537
Inclination97.9742
Eccentricity0.0010175
Argument of Perigee262.4059
Mean Anonmoly97.6003
Mean Motion14.9135038
Decay Rate2.971E-05
L11 40025U 14033R 22324.77544226 .00002971 00000+0 30348-3 0 9991
L22 40025 97.9742 263.5537 0010175 262.4059 97.6003 14.91350380457054



Live tracking and technical data element details for QB50P1 (NORAD 40025). QB50P1 can be tracked NOW for your location showing map with azimuth and elevation plus other details from your city location.







IsCatalogInMostPopularTable: catalog: 40025, numindb: 337
Update: records affected: 1



GetName: 40025 QB50P1

Hit Count: updated at: Fri, 02 Dec 2022 12:21:12 GMT